�������l�o���
Date,Time,MP-1(��Sv/h),MP-2(��Sv/h),MP-3(��Sv/h),MP-4(��Sv/h),MP-5(��Sv/h),MP-6(��Sv/h),MP-7(��Sv/h),MP-8(��Sv/h),����,����(m/s),���J
2018/09/08,00:00,0.808,1.209,0.851,1.498,1.096,0.470,0.818,0.777,��쓌,4.3,��
2018/09/08,00:10,0.807,1.210,0.850,1.497,1.099,0.470,0.820,0.776,��,4.4,��
2018/09/08,00:20,0.807,1.206,0.847,1.498,1.092,0.470,0.821,0.777,��,4.5,��
2018/09/08,00:30,0.807,1.208,0.850,1.497,1.097,0.471,0.821,0.775,��,4.2,��
2018/09/08,00:40,0.806,1.211,0.849,1.498,1.098,0.471,0.819,0.775,��,4.1,��
2018/09/08,00:50,0.808,1.207,0.850,1.499,1.096,0.470,0.820,0.776,��,4.6,��
2018/09/08,01:00,0.808,1.208,0.850,1.496,1.095,0.471,0.820,0.776,��,3.0,��
2018/09/08,01:10,0.806,1.209,0.850,1.498,1.097,0.471,0.819,0.775,��쓌,1.9,��
2018/09/08,01:20,0.809,1.208,0.850,1.499,1.096,0.471,0.819,0.775,��쓌,1.7,��
2018/09/08,01:30,0.807,1.208,0.851,1.501,1.097,0.471,0.819,0.774,��,0.9,��
2018/09/08,01:40,0.808,1.206,0.851,1.498,1.095,0.471,0.820,0.776,��,2.6,��
2018/09/08,01:50,0.807,1.206,0.847,1.498,1.098,0.470,0.820,0.774,��쓌,1.2,��
2018/09/08,02:00,0.808,1.206,0.851,1.500,1.097,0.470,0.820,0.775,��,1.5,��
2018/09/08,02:10,0.805,1.206,0.850,1.499,1.094,0.470,0.820,0.777,��,1.7,��
2018/09/08,02:20,0.807,1.207,0.851,1.498,1.096,0.470,0.819,0.775,��,1.4,��
2018/09/08,02:30,0.806,1.207,0.850,1.498,1.098,0.470,0.819,0.775,��쓌,0.6,��
2018/09/08,02:40,0.806,1.207,0.849,1.495,1.096,0.470,0.820,0.775,��쐼,2.0,��
2018/09/08,02:50,0.805,1.205,0.851,1.499,1.097,0.471,0.818,0.775,��쓌,1.1,��
2018/09/08,03:00,0.806,1.207,0.850,1.495,1.094,0.471,0.821,0.776,-,CALM,��
2018/09/08,03:10,0.807,1.206,0.851,1.495,1.096,0.471,0.817,0.774,�쐼,0.8,��
2018/09/08,03:20,0.805,1.205,0.850,1.501,1.094,0.470,0.819,0.774,��쐼,2.5,��
2018/09/08,03:30,0.806,1.206,0.850,1.498,1.096,0.469,0.819,0.775,��쐼,2.8,��
2018/09/08,03:40,0.806,1.206,0.848,1.497,1.095,0.470,0.819,0.774,��쓌,3.4,��
2018/09/08,03:50,0.807,1.206,0.851,1.497,1.098,0.470,0.820,0.776,��쓌,2.6,��
2018/09/08,04:00,0.807,1.207,0.849,1.499,1.095,0.471,0.820,0.776,��쓌,3.0,��
2018/09/08,04:10,0.806,1.207,0.849,1.500,1.096,0.471,0.818,0.774,��쓌,3.4,��
2018/09/08,04:20,0.806,1.205,0.851,1.499,1.095,0.470,0.819,0.775,��쓌,2.6,��
2018/09/08,04:30,0.806,1.207,0.850,1.499,1.094,0.471,0.818,0.774,��쓌,3.1,��
2018/09/08,04:40,0.803,1.207,0.850,1.499,1.095,0.470,0.817,0.776,��,1.7,��
2018/09/08,04:50,0.806,1.209,0.849,1.497,1.096,0.470,0.819,0.776,��쓌,2.0,��
2018/09/08,05:00,0.805,1.207,0.848,1.498,1.096,0.470,0.822,0.775,��,1.7,��
2018/09/08,05:10,0.806,1.207,0.851,1.498,1.096,0.470,0.820,0.776,��,1.4,��
2018/09/08,05:20,0.807,1.206,0.850,1.499,1.096,0.469,0.821,0.775,��쓌,1.4,��
2018/09/08,05:30,0.805,1.206,0.851,1.498,1.094,0.470,0.818,0.775,�쓌,0.6,��
2018/09/08,05:40,0.806,1.207,0.850,1.499,1.095,0.470,0.820,0.775,�쓌,1.1,��
2018/09/08,05:50,0.805,1.208,0.851,1.500,1.095,0.471,0.819,0.774,��쓌,1.1,��
2018/09/08,06:00,0.806,1.207,0.847,1.499,1.095,0.471,0.820,0.775,��쓌,1.4,��
2018/09/08,06:10,0.808,1.207,0.852,1.499,1.096,0.471,0.820,0.775,��,0.6,��
2018/09/08,06:20,0.806,1.206,0.850,1.499,1.097,0.469,0.820,0.775,���쐼,0.6,��
2018/09/08,06:30,0.808,1.207,0.850,1.500,1.096,0.470,0.821,0.776,�k��,1.5,��
2018/09/08,06:40,0.808,1.205,0.851,1.499,1.097,0.471,0.820,0.775,�k�k��,3.6,��
2018/09/08,06:50,0.806,1.205,0.851,1.500,1.096,0.469,0.819,0.776,�k�k��,3.5,��
2018/09/08,07:00,0.808,1.202,0.848,1.500,1.094,0.470,0.820,0.777,�k�k��,3.2,�L
2018/09/08,07:10,0.806,1.204,0.849,1.499,1.094,0.472,0.819,0.778,�k,3.1,�L
2018/09/08,07:20,0.806,1.205,0.852,1.500,1.096,0.470,0.816,0.775,�k,4.1,��
2018/09/08,07:30,0.807,1.205,0.849,1.497,1.096,0.471,0.819,0.775,�k,4.0,��
2018/09/08,07:40,0.806,1.208,0.848,1.498,1.097,0.470,0.817,0.775,�k�k��,4.3,��
2018/09/08,07:50,0.805,1.206,0.849,1.500,1.094,0.470,0.819,0.775,�k�k��,3.9,��
2018/09/08,08:00,0.805,1.206,0.850,1.501,1.097,0.470,0.818,0.774,�k,4.9,��
2018/09/08,08:10,0.806,1.206,0.849,1.500,1.097,0.469,0.818,0.776,�k,4.5,��
2018/09/08,08:20,0.806,1.206,0.848,1.500,1.096,0.468,0.819,0.775,�k,4.6,��
2018/09/08,08:30,0.806,1.204,0.849,1.501,1.096,0.468,0.818,0.772,�k,4.0,��
2018/09/08,08:40,0.806,1.205,0.850,1.500,1.095,0.468,0.816,0.775,�k,4.7,��
2018/09/08,08:50,0.806,1.205,0.849,1.499,1.096,0.469,0.818,0.776,�k,4.6,��
2018/09/08,09:00,0.803,1.205,0.849,1.498,1.097,0.469,0.817,0.774,�k,4.1,��
2018/09/08,09:10,0.804,1.201,0.847,1.500,1.095,0.468,0.816,0.775,�k,4.3,�L
2018/09/08,09:20,0.805,1.202,0.849,1.499,1.093,0.470,0.818,0.774,�k,5.1,�L
2018/09/08,09:30,0.804,1.203,0.849,1.501,1.095,0.468,0.817,0.775,�k,5.1,��
2018/09/08,09:40,0.803,1.201,0.847,1.496,1.094,0.468,0.818,0.773,�k,4.5,��
2018/09/08,09:50,0.805,1.200,0.847,1.498,1.094,0.467,0.817,0.773,�k,4.5,��
2018/09/08,10:00,0.805,1.199,0.846,1.499,1.095,0.469,0.817,0.774,�k,4.7,�L
2018/09/08,10:10,0.806,1.198,0.850,1.498,1.095,0.467,0.816,0.774,�k,4.7,�L
2018/09/08,10:20,0.804,1.198,0.847,1.499,1.093,0.468,0.818,0.774,�k,5.1,�L
2018/09/08,10:30,0.804,1.202,0.849,1.499,1.095,0.468,0.818,0.775,�k,3.4,��
2018/09/08,10:40,0.804,1.200,0.848,1.501,1.099,0.467,0.818,0.775,�k,3.8,��
2018/09/08,10:50,0.805,1.204,0.847,1.500,1.098,0.467,0.817,0.776,�k,3.8,��
2018/09/08,11:00,0.804,1.203,0.847,1.499,1.099,0.467,0.817,0.774,�k,3.6,�L
2018/09/08,11:10,0.807,1.201,0.848,1.499,1.098,0.467,0.818,0.773,�k�k��,3.8,�L
2018/09/08,11:20,0.802,1.200,0.848,1.500,1.097,0.468,0.818,0.773,�k,3.1,��
2018/09/08,11:30,0.804,1.203,0.848,1.500,1.096,0.466,0.819,0.775,�k,3.3,�L
2018/09/08,11:40,0.806,1.203,0.849,1.497,1.098,0.467,0.817,0.774,�k�k��,3.4,�L
2018/09/08,11:50,0.806,1.202,0.849,1.500,1.098,0.467,0.819,0.775,�k,3.3,�L
2018/09/08,12:00,0.807,1.205,0.850,1.500,1.097,0.467,0.818,0.774,�k�k��,2.9,��
2018/09/08,12:10,0.806,1.206,0.851,1.499,1.100,0.467,0.818,0.773,�k�k��,3.2,��
2018/09/08,12:20,0.806,1.204,0.850,1.499,1.097,0.468,0.818,0.774,�k,3.8,��
2018/09/08,12:30,0.805,1.203,0.851,1.500,1.099,0.469,0.819,0.774,�k,3.7,��
2018/09/08,12:40,0.806,1.202,0.851,1.502,1.099,0.467,0.818,0.773,�k,3.0,�L
2018/09/08,12:50,0.805,1.200,0.851,1.501,1.096,0.468,0.817,0.774,�k,3.6,�L
2018/09/08,13:00,0.805,1.199,0.849,1.501,1.098,0.468,0.816,0.772,�k,2.6,�L
2018/09/08,13:10,0.803,1.198,0.849,1.498,1.097,0.467,0.816,0.773,�k�k��,3.4,�L
2018/09/08,13:20,0.802,1.197,0.850,1.501,1.096,0.468,0.816,0.772,�k,4.9,�L
2018/09/08,13:30,0.801,1.199,0.849,1.497,1.095,0.467,0.817,0.773,�k��,4.9,�L
2018/09/08,13:40,0.802,1.189,0.849,1.499,1.094,0.466,0.817,0.771,�k��,4.8,�L
2018/09/08,13:50,0.801,1.192,0.847,1.497,1.094,0.467,0.817,0.772,�k��,4.0,�L
2018/09/08,14:00,0.801,1.190,0.846,1.498,1.095,0.468,0.816,0.771,�k��,4.1,�L
2018/09/08,14:10,0.800,1.187,0.847,1.500,1.091,0.467,0.816,0.771,�k�k��,2.9,��
2018/09/08,14:20,0.801,1.191,0.847,1.498,1.092,0.467,0.816,0.770,���k��,1.7,�L
2018/09/08,14:30,0.798,1.190,0.846,1.495,1.093,0.466,0.818,0.772,���k��,2.5,�L
2018/09/08,14:40,0.799,1.192,0.845,1.499,1.089,0.467,0.817,0.770,���k��,3.3,�L
2018/09/08,14:50,0.801,1.194,0.846,1.498,1.097,0.467,0.816,0.772,���k��,4.5,�L
2018/09/08,15:00,0.801,1.193,0.846,1.499,1.093,0.468,0.817,0.771,�k��,4.2,��
2018/09/08,15:10,0.803,1.192,0.848,1.497,1.092,0.468,0.817,0.769,�k��,3.9,�L
2018/09/08,15:20,0.802,1.194,0.847,1.497,1.092,0.466,0.816,0.772,���k��,4.4,�L
2018/09/08,15:30,0.801,1.196,0.849,1.498,1.092,0.467,0.816,0.772,�k��,3.9,�L
2018/09/08,15:40,0.800,1.194,0.847,1.497,1.092,0.466,0.816,0.774,�k��,4.4,�L
2018/09/08,15:50,0.802,1.199,0.847,1.501,1.092,0.468,0.817,0.771,�k��,3.9,��
2018/09/08,16:00,0.802,1.198,0.848,1.499,1.092,0.469,0.818,0.774,�k��,3.2,�L
2018/09/08,16:10,0.803,1.197,0.847,1.501,1.091,0.468,0.815,0.772,���k��,2.0,�L
2018/09/08,16:20,0.802,1.199,0.847,1.501,1.095,0.466,0.817,0.773,�쐼,1.1,��
2018/09/08,16:30,0.800,1.198,0.850,1.500,1.092,0.467,0.817,0.773,��,0.6,��
2018/09/08,16:40,0.803,1.198,0.845,1.500,1.094,0.468,0.816,0.773,��,1.5,��
2018/09/08,16:50,0.804,1.200,0.846,1.500,1.094,0.467,0.818,0.776,���쓌,1.2,��
2018/09/08,17:00,0.802,1.198,0.849,1.502,1.095,0.467,0.817,0.773,���쓌,1.5,��
2018/09/08,17:10,0.801,1.200,0.850,1.500,1.094,0.467,0.818,0.774,���쓌,1.5,��
2018/09/08,17:20,0.801,1.199,0.847,1.499,1.094,0.469,0.816,0.773,��,1.2,��
2018/09/08,17:30,0.803,1.200,0.846,1.500,1.094,0.468,0.819,0.774,��,1.4,��
2018/09/08,17:40,0.801,1.198,0.847,1.498,1.090,0.468,0.817,0.773,�쓌,1.7,��
2018/09/08,17:50,0.801,1.199,0.846,1.496,1.093,0.468,0.818,0.774,���쓌,1.2,��
2018/09/08,18:00,0.801,1.198,0.847,1.499,1.092,0.468,0.817,0.774,�쓌,0.8,��
2018/09/08,18:10,0.801,1.199,0.846,1.499,1.091,0.467,0.816,0.774,-,CALM,��
2018/09/08,18:20,0.803,1.198,0.848,1.498,1.091,0.468,0.818,0.774,���쓌,0.8,��
2018/09/08,18:30,0.803,1.199,0.848,1.501,1.092,0.468,0.817,0.774,��,0.8,��
2018/09/08,18:40,0.804,1.198,0.847,1.499,1.094,0.467,0.819,0.776,��쓌,0.6,��
2018/09/08,18:50,0.804,1.200,0.848,1.499,1.091,0.466,0.817,0.774,-,CALM,��
2018/09/08,19:00,0.804,1.200,0.848,1.497,1.091,0.469,0.817,0.774,���k��,0.8,��
2018/09/08,19:10,0.802,1.200,0.850,1.502,1.093,0.468,0.819,0.774,���k��,0.6,�L
2018/09/08,19:20,0.803,1.201,0.848,1.501,1.093,0.468,0.818,0.773,��,1.5,�L
2018/09/08,19:30,0.803,1.202,0.845,1.504,1.093,0.466,0.817,0.773,���k��,0.8,�L
2018/09/08,19:40,0.803,1.202,0.846,1.500,1.093,0.469,0.817,0.772,-,CALM,��
2018/09/08,19:50,0.803,1.201,0.847,1.499,1.094,0.468,0.818,0.776,�k��,0.6,�L
2018/09/08,20:00,0.802,1.201,0.848,1.501,1.094,0.467,0.819,0.774,��,0.8,�L
2018/09/08,20:10,0.802,1.200,0.847,1.499,1.092,0.467,0.819,0.772,�k,0.8,�L
2018/09/08,20:20,0.803,1.199,0.847,1.503,1.094,0.467,0.819,0.775,-,CALM,�L
2018/09/08,20:30,0.802,1.201,0.846,1.500,1.093,0.469,0.817,0.775,-,CALM,�L
2018/09/08,20:40,0.801,1.200,0.848,1.497,1.092,0.469,0.818,0.774,-,CALM,��
2018/09/08,20:50,0.801,1.198,0.847,1.500,1.093,0.469,0.817,0.773,�k,0.6,�L
2018/09/08,21:00,0.803,1.198,0.849,1.500,1.091,0.467,0.818,0.774,-,CALM,�L
2018/09/08,21:10,0.802,1.199,0.848,1.500,1.095,0.469,0.817,0.775,�k�k��,0.8,�L
2018/09/08,21:20,0.801,1.199,0.850,1.500,1.095,0.468,0.817,0.773,���k��,0.8,�L
2018/09/08,21:30,0.803,1.200,0.848,1.502,1.095,0.468,0.817,0.773,-,CALM,�L
2018/09/08,21:40,0.802,1.199,0.849,1.501,1.094,0.469,0.818,0.772,��,0.8,��
2018/09/08,21:50,0.804,1.199,0.848,1.502,1.094,0.468,0.818,0.775,-,CALM,��
2018/09/08,22:00,0.803,1.198,0.848,1.500,1.095,0.469,0.816,0.774,��,0.9,�L
2018/09/08,22:10,0.802,1.201,0.848,1.502,1.094,0.469,0.816,0.773,���쐼,1.5,�L
2018/09/08,22:20,0.804,1.202,0.845,1.498,1.094,0.468,0.818,0.774,���쐼,1.5,�L
2018/09/08,22:30,0.804,1.200,0.850,1.500,1.095,0.469,0.818,0.773,�쐼,0.6,�L
2018/09/08,22:40,0.802,1.199,0.848,1.498,1.097,0.469,0.817,0.775,��쐼,0.6,�L
2018/09/08,22:50,0.802,1.198,0.846,1.498,1.091,0.467,0.817,0.773,���쐼,1.4,�L
2018/09/08,23:00,0.801,1.199,0.847,1.499,1.092,0.466,0.818,0.774,���k��,2.2,�L
2018/09/08,23:10,0.802,1.200,0.848,1.502,1.091,0.467,0.817,0.772,�k��,3.4,��
2018/09/08,23:20,0.800,1.199,0.848,1.497,1.089,0.466,0.817,0.774,���k��,4.4,��
2018/09/08,23:30,0.802,1.199,0.846,1.499,1.090,0.467,0.816,0.774,�k��,4.0,��
2018/09/08,23:40,0.802,1.196,0.846,1.501,1.090,0.466,0.818,0.772,�k��,3.5,�L
2018/09/08,23:50,0.800,1.198,0.846,1.500,1.089,0.468,0.817,0.772,�k��,3.2,�L
